Location: Oberkirch
(48.5323°N, 8.0787°E)
Time: 00:51:50
(UTC+00:00)

Injun/Solrad 3 - All Passes

Search period start: 07 February 2026 00:00
Search period end: 17 February 2026 00:00
Orbit: 873 x 983 km, 66.8° (Epoch: 6 February)

Date Brightness Start Highest point End Pass type
(mag) Time Alt. Az. Time Alt. Az. Time Alt. Az.
7 Feb - 12:36:29 10° S 12:41:51 39° ESE 12:47:18 10° NE daylight
7 Feb - 14:22:40 10° WSW 14:28:16 46° NW 14:34:00 10° NNE daylight
7 Feb - 16:12:31 10° WNW 16:16:20 17° NNW 16:20:12 10° NNE daylight
7 Feb - 18:02:27 10° NNW 18:05:26 14° N 18:08:27 10° NE visible
7 Feb - 19:49:06 10° NNW 19:54:09 27° NNE 19:59:18 10° E visible
7 Feb - 21:35:17 10° NW 21:41:26 90° NE 21:47:43 10° SSE visible
7 Feb - 23:23:03 10° WNW 23:27:10 19° WSW 23:31:20 10° SSW night (unlit)
8 Feb - 12:47:02 10° SSW 12:52:44 58° ESE 12:58:32 10° NE daylight
8 Feb - 14:34:13 10° WSW 14:39:32 35° NW 14:44:58 10° NNE daylight
8 Feb - 16:24:35 10° NW 16:27:55 15° NNW 16:31:19 10° NNE daylight
8 Feb - 18:13:43 10° NNW 18:17:05 15° NNE 18:20:30 10° NE visible
8 Feb - 20:00:02 10° NNW 20:05:32 34° NE 20:11:08 10° ESE visible
8 Feb - 21:46:22 10° NW 21:52:26 65° WSW 21:58:38 10° SSE visible
8 Feb - 23:35:34 10° W 23:37:49 12° W 23:40:05 10° WSW night (unlit)
9 Feb - 11:14:54 10° SE 11:18:10 15° ESE 11:21:28 10° ENE daylight
9 Feb - 12:57:52 10° SSW 13:03:42 83° ESE 13:09:40 10° NE daylight
9 Feb - 14:45:58 10° W 14:50:54 27° NW 14:55:56 10° NNE daylight
9 Feb - 16:36:36 10° NW 16:39:35 14° N 16:42:35 10° NNE daylight
9 Feb - 18:24:50 10° NNW 18:28:42 17° NNE 18:32:39 10° ENE visible
9 Feb - 20:11:00 10° NNW 20:16:49 44° NE 20:22:46 10° ESE visible
9 Feb - 21:57:34 10° NW 22:03:22 45° WSW 22:09:17 10° S visible
10 Feb - 11:24:21 10° SSE 11:28:51 24° ESE 11:33:24 10° ENE daylight
10 Feb - 13:08:56 10° SW 13:14:46 71° NW 13:20:43 10° NNE daylight
10 Feb - 14:57:51 10° WNW 15:02:20 22° NNW 15:06:54 10° NNE daylight
10 Feb - 16:48:26 10° NNW 16:51:15 13° N 16:54:06 10° NNE daylight
10 Feb - 18:35:51 10° NNW 18:40:16 20° NNE 18:44:45 10° ENE visible
10 Feb - 20:21:58 10° NNW 20:28:01 60° NE 20:34:12 10° SE visible
10 Feb - 22:08:53 10° NW 22:14:13 31° WSW 22:19:38 10° S visible
11 Feb - 11:34:25 10° S 11:39:37 35° ESE 11:44:55 10° NE daylight
11 Feb - 13:20:14 10° WSW 13:25:54 51° NW 13:31:44 10° NNE daylight
11 Feb - 15:09:51 10° WNW 15:13:51 18° NNW 15:17:55 10° NNE daylight
11 Feb - 17:00:01 10° NNW 17:02:56 14° N 17:05:53 10° NE daylight
11 Feb - 18:46:49 10° NNW 18:51:44 25° NNE 18:56:45 10° E visible
11 Feb - 20:32:58 10° NW 20:39:07 82° NE 20:45:26 10° SE visible
11 Feb - 22:20:28 10° WNW 22:24:59 22° WSW 22:29:33 10° SSW visible
12 Feb - 11:44:52 10° S 11:50:28 51° ESE 11:56:12 10° NE daylight
12 Feb - 13:31:43 10° WSW 13:37:09 38° NW 13:42:42 10° NNE daylight
12 Feb - 15:21:56 10° NW 15:25:26 16° NNW 15:28:59 10° NNE daylight
12 Feb - 17:11:21 10° NNW 17:14:36 15° NNE 17:17:53 10° NE visible
12 Feb - 18:57:46 10° NNW 19:03:08 31° NE 19:08:36 10° E visible
12 Feb - 20:44:03 10° NW 20:50:10 73° WSW 20:56:26 10° SSE visible
12 Feb - 22:32:36 10° WNW 22:35:40 14° WSW 22:38:45 10° SW visible
13 Feb - 10:13:21 10° SE 10:16:00 13° ESE 10:18:40 10° ENE daylight
13 Feb - 11:55:36 10° SSW 12:01:24 75° ESE 12:07:22 10° NE daylight
13 Feb - 13:43:24 10° W 13:48:29 29° NW 13:53:40 10° NNE daylight
13 Feb - 15:33:58 10° NW 15:37:04 14° N 15:40:13 10° NNE daylight
13 Feb - 17:22:30 10° NNW 17:26:14 16° NNE 17:30:00 10° ENE visible
13 Feb - 19:08:43 10° NNW 19:14:27 40° NE 19:20:18 10° ESE visible
13 Feb - 20:55:12 10° NW 21:01:07 51° WSW 21:07:11 10° S visible
14 Feb - 10:22:28 10° SSE 10:26:39 21° ESE 10:30:53 10° ENE daylight
14 Feb - 12:06:35 10° SW 12:12:26 79° NW 12:18:26 10° NNE daylight
14 Feb - 13:55:14 10° W 13:59:53 23° NNW 14:04:38 10° NNE daylight
14 Feb - 15:45:52 10° NNW 15:48:45 13° N 15:51:39 10° NNE daylight
14 Feb - 17:33:33 10° NNW 17:37:48 19° NNE 17:42:07 10° ENE visible
14 Feb - 19:19:40 10° NNW 19:25:40 54° NE 19:31:49 10° SE visible
14 Feb - 21:06:29 10° NW 21:11:59 35° WSW 21:17:37 10° S visible
15 Feb - 10:32:22 10° S 10:37:23 31° ESE 10:42:30 10° NE daylight
15 Feb - 12:17:48 10° SW 12:23:33 57° NW 12:29:27 10° NNE daylight
15 Feb - 14:07:12 10° WNW 14:11:23 19° NNW 14:15:38 10° NNE daylight
15 Feb - 15:57:32 10° NNW 16:00:25 13° N 16:03:20 10° NNE daylight
15 Feb - 17:44:31 10° NNW 17:49:18 23° NNE 17:54:09 10° E visible
15 Feb - 19:30:41 10° NNW 19:36:50 74° NE 19:43:07 10° SE visible
15 Feb - 21:17:57 10° NW 21:22:47 24° WSW 21:27:42 10° SSW visible
16 Feb - 10:42:42 10° S 10:48:13 45° ESE 10:53:50 10° NE daylight
16 Feb - 12:29:14 10° WSW 12:34:46 42° NW 12:40:26 10° NNE daylight
16 Feb - 14:19:16 10° WNW 14:22:57 16° NNW 14:26:41 10° NNE daylight
16 Feb - 16:08:57 10° NNW 16:12:06 14° N 16:15:17 10° NE daylight
16 Feb - 17:55:29 10° NNW 18:00:44 29° NE 18:06:04 10° E visible
16 Feb - 19:41:43 10° NW 19:47:53 81° WSW 19:54:11 10° SSE visible
16 Feb - 21:29:50 10° WNW 21:33:29 16° WSW 21:37:12 10° SW visible
